CW1334 Weather Reports


Display with metric or nautical units.
time (UTC)temp
F
wind
direction
speed
MPH
gust
MPH
rain 1hr
in
rain 24hr
in
rain mn
in
humidity
%
barometer
mb
20260505101557 37 32 1.0 3.0 0.00 0.00 0.00 57 1017.8
20260505094559 37 32 1.0 3.0 0.00 0.00 0.00 57 1017.6
20260505093057 37 32 2.0 6.0 0.00 0.00 0.00 57 1017.7
20260505091556 37 32 4.0 8.0 0.00 0.00 0.00 57 1017.5
20260505090052 38 11 4.0 6.0 0.00 0.00 0.00 55 1017.6
20260505084553 39 26 3.0 6.0 0.00 0.00 0.00 54 1017.6
20260505083057 40 25 3.0 6.0 0.00 0.00 0.00 54 1017.7
20260505081551 39 348 3.0 5.0 0.00 0.00 0.00 55 1017.5
20260505080057 39 40 3.0 6.0 0.00 0.00 0.00 55 1017.3
20260505074559 39 333 2.0 8.0 0.00 0.00 0.00 54 1017.3
20260505073104 39 340 2.0 6.0 0.00 0.00 0.00 53 1017.5
20260505071601 38 335 3.0 6.0 0.00 0.00 0.00 53 1017.4
20260505070056 37 31 2.0 5.0 0.00 0.00 0.00 54 1017.4
20260505064558 37 31 3.0 5.0 0.00 0.00 0.00 53 1017.5
20260505063100 37 31 2.0 3.0 0.00 0.00 0.00 54 1017.3
20260505061557 36 31 3.0 6.0 0.00 0.00 0.00 54 1017.4
20260505054625 37 31 2.0 5.0 0.00 0.00 0.00 53 1017.4
20260505053103 38 31 1.0 3.0 0.00 0.00 0.00 52 1017.2
20260505051556 38 31 1.0 3.0 0.00 0.00 0.00 50 1017.1
20260505050104 39 0 1.0 6.0 0.00 0.00 0.00 51 1016.8
20260505041558 41 42 5.0 13.0 0.00 0.00 0.00 49 1016.7
20260505040057 41 77 5.0 12.0 0.00 0.00 0.00 49 1016.4
20260505034552 41 37 9.0 13.0 0.00 0.00 0.00 47 1016.3
20260505033054 43 13 9.0 16.0 0.00 0.00 0.00 45 1016.2
20260505031607 44 38 12.0 18.0 0.00 0.00 0.00 44 1015.9
20260505030052 45 21 13.0 20.0 0.00 0.00 0.00 42 1015.8
20260505024554 46 17 11.0 19.0 0.00 0.00 0.00 41 1015.5
20260505023116 47 45 13.0 21.0 0.00 0.00 0.00 38 1015.3
20260505021554 49 360 11.0 22.0 0.00 0.00 0.00 35 1015.0
20260505020054 50 27 14.0 25.0 0.00 0.00 0.00 33 1014.9
20260505014601 51 20 11.0 23.0 0.00 0.00 0.00 28 1014.7
20260505013106 52 342 13.0 23.0 0.00 0.00 0.00 25 1014.5
20260505011554 53 29 9.0 23.0 0.00 0.00 0.00 24 1014.5
20260505010100 53 65 12.0 22.0 0.00 0.00 0.00 23 1014.4
20260505004556 54 352 10.0 23.0 0.00 0.00 0.00 21 1014.2
20260505003055 55 341 13.0 21.0 0.00 0.00 0.00 20 1014.2
20260505001556 55 304 13.0 29.0 0.00 0.00 0.00 21 1014.1
20260505000113 55 337 12.0 26.0 0.00 0.00 0.00 21 1014.1
20260504234552 54 345 18.0 27.0 0.00 0.00 0.00 23 1014.3
20260504233057 55 327 14.0 27.0 0.00 0.00 0.00 23 1014.2
20260504231554 54 333 18.0 35.0 0.00 0.00 0.00 24 1014.3
20260504230105 54 327 19.0 27.0 0.00 0.00 0.00 24 1014.2
20260504224556 54 304 15.0 26.0 0.00 0.00 0.00 24 1014.2
20260504223103 53 334 18.0 31.0 0.00 0.00 0.00 27 1014.3
20260504221601 54 338 15.0 27.0 0.00 0.00 0.00 27 1014.1
20260504220058 54 274 16.0 29.0 0.00 0.00 0.00 29 1014.1
20260504214558 53 310 15.0 29.0 0.00 0.00 0.00 30 1014.3
20260504213058 52 300 15.0 25.0 0.00 0.00 0.00 30 1014.4
20260504211605 53 16 15.0 26.0 0.00 0.00 0.00 30 1014.6
20260504210057 52 347 16.0 26.0 0.00 0.00 0.00 31 1014.7
20260504204602 52 311 10.0 30.0 0.00 0.00 0.00 35 1014.7
20260504203103 52 313 14.0 26.0 0.00 0.00 0.00 34 1014.7
20260504201559 53 324 15.0 28.0 0.00 0.00 0.00 34 1014.5
20260504200057 53 321 14.0 24.0 0.00 0.00 0.00 34 1014.3
20260504194555 53 333 16.0 25.0 0.00 0.00 0.00 33 1014.6
20260504193056 53 349 15.0 28.0 0.00 0.00 0.00 35 1014.5
20260504191608 53 305 16.0 28.0 0.00 0.00 0.00 35 1014.5
20260504190107 53 335 19.0 29.0 0.00 0.00 0.00 35 1014.6
20260504184553 53 64 17.0 32.0 0.00 0.00 0.00 35 1014.4
20260504183102 54 323 18.0 28.0 0.00 0.00 0.00 35 1014.3
20260504181558 53 317 17.0 28.0 0.00 0.00 0.00 36 1014.3
20260504180057 53 300 17.0 26.0 0.00 0.00 0.00 38 1014.5
20260504174554 53 328 12.0 25.0 0.00 0.00 0.00 38 1014.5
20260504173053 52 292 14.0 27.0 0.00 0.00 0.00 39 1014.6
20260504171551 52 318 16.0 26.0 0.00 0.00 0.00 42 1014.7